User: anonymous   Login
Location: Caltech
(34.1382°N, 118.1253°W)
Time: 14:30:11
(UTC-08:00)
Language:

BREEZE M DEB (TANK) - Orbit

View from above orbital plane
View from above orbital plane
View from above satellite
View from above satellite

Ground track
Ground track

The orbit data is extracted from the following two-line orbital elements,

1 33437U 08057B   15026.14455046  .00002212  00000-0  69000-3 0  1563
2 33437 049.5602 271.2346 5002703 162.4264 350.8215 05.56629315125043
Epoch (UTC): 26 January 2015 03:28:09
Eccentricity: 0.5002703
inclination: 49.5602°
perigee height: 343 km
apogee height: 13799 km
right ascension of ascending node: 271.2346°
argument of perigee: 162.4264°
revolutions per day: 5.56629315
mean anomaly at epoch: 350.8215°
orbit number at epoch: 12504

The dashed part of the orbit path shows where the satellite is in the earth's shadow,  

DLR